AG4OX Weather Reports


Display with metric or nautical units.
time (UTC)temp
F
wind
direction
speed
MPH
gust
MPH
rain 1hr
in
rain 24hr
in
rain mn
in
humidity
%
barometer
mb
20260904172006 92 155 3.0 7.0 0.00 0.20 0.00 62 1014.0
20260904171006 92 156 1.0 8.0 0.00 0.20 0.00 66 1014.3
20260904165007 92 166 3.0 7.0 0.00 0.20 0.00 66 1014.3
20260904163005 91 221 3.0 12.0 0.00 0.20 0.00 65 1014.4
20260904162007 91 220 3.0 10.0 0.00 0.20 0.00 64 1014.5
20260904161005 91 248 2.0 6.0 0.00 0.20 0.00 67 1014.7
20260904160006 91 198 3.0 7.0 0.00 0.20 0.00 68 1014.8
20260904155005 90 206 4.0 7.0 0.00 0.20 0.00 68 1015.0
20260904154006 90 184 3.0 12.0 0.00 0.20 0.00 69 1014.8
20260904153005 90 223 3.0 7.0 0.00 0.20 0.00 72 1014.8
20260904150006 88 198 3.0 12.0 0.00 0.20 0.00 75 1014.7
20260904145006 88 203 5.0 8.0 0.00 0.20 0.00 76 1014.8
20260904144007 88 221 2.0 6.0 0.00 0.20 0.00 76 1014.8
20260904142006 86 191 2.0 7.0 0.00 0.20 0.00 79 1014.5
20260904140005 85 231 4.0 7.0 0.00 0.20 0.00 79 1014.1
20260904134005 85 214 3.0 8.0 0.00 0.20 0.00 80 1014.2
20260904133005 85 238 2.0 5.0 0.00 0.20 0.00 81 1014.3
20260904132006 85 225 2.0 6.0 0.00 0.20 0.00 80 1014.2
20260904131005 85 183 1.0 3.0 0.00 0.20 0.00 81 1014.1
20260904130004 83 76 1.0 3.0 0.00 0.20 0.00 82 1014.1
20260904125005 83 144 2.0 3.0 0.00 0.20 0.00 82 1014.0
20260904124005 82 217 2.0 3.0 0.00 0.20 0.00 82 1013.8
20260904123005 80 196 1.0 3.0 0.00 0.20 0.00 78 1013.7
20260904122005 80 192 1.0 2.0 0.00 0.20 0.00 78 1013.8
20260904121005 80 94 0.0 2.0 0.00 0.20 0.00 66 1013.7
20260904120005 78 138 0.0 2.0 0.00 0.20 0.00 64 1013.6
20260904115005 77 95 0.0 0.0 0.00 0.20 0.00 65 1013.5
20260904114006 77 95 0.0 0.0 0.00 0.20 0.00 65 1013.4
20260904113007 75 95 0.0 0.0 0.00 0.20 0.00 67 1013.3
20260904112006 75 95 0.0 0.0 0.00 0.20 0.00 67 1013.2
20260904111005 75 95 0.0 0.0 0.00 0.20 0.00 67 1013.1
20260904105006 75 95 0.0 0.0 0.00 0.20 0.00 67 1013.0
20260904104006 75 95 0.0 0.0 0.00 0.20 0.00 67 1013.0
20260904103006 75 95 0.0 0.0 0.00 0.20 0.00 67 1013.0
20260904102006 75 95 0.0 1.0 0.00 0.20 0.00 67 1012.8
20260904101006 76 95 0.0 0.0 0.00 0.20 0.00 67 1012.7
20260904100005 76 95 0.0 1.0 0.00 0.20 0.00 67 1012.5
20260904095006 75 95 0.0 0.0 0.00 0.20 0.00 68 1012.4
20260904094006 76 95 0.0 1.0 0.00 0.20 0.00 67 1012.5
20260904093005 76 95 0.0 1.0 0.00 0.20 0.00 67 1012.4
20260904092005 76 95 0.0 0.0 0.00 0.20 0.00 67 1012.2
20260904085005 76 95 0.0 0.0 0.00 0.20 0.00 68 1012.3
20260904084005 76 95 0.0 1.0 0.00 0.20 0.00 68 1012.2
20260904083006 76 95 0.0 1.0 0.00 0.20 0.00 68 1012.0
20260904082006 76 95 0.0 0.0 0.00 0.20 0.00 68 1012.0
20260904081005 76 95 0.0 0.0 0.00 0.20 0.00 68 1012.0
20260904080005 76 95 0.0 0.0 0.00 0.20 0.00 68 1012.0
20260904075006 76 95 0.0 0.0 0.00 0.20 0.00 68 1012.0
20260904074005 76 95 1.0 1.0 0.00 0.20 0.00 68 1012.0
20260904073006 76 95 1.0 2.0 0.00 0.20 0.00 68 1011.9
20260904072006 76 95 0.0 0.0 0.00 0.20 0.00 68 1011.8
20260904071006 76 95 0.0 0.0 0.00 0.20 0.00 69 1012.0
20260904070005 75 95 0.0 0.0 0.00 0.20 0.00 70 1012.2
20260904065005 76 95 0.0 0.0 0.00 0.20 0.00 69 1012.2
20260904064006 75 95 0.0 0.0 0.00 0.20 0.00 70 1012.3
20260904063005 75 95 0.0 0.0 0.00 0.20 0.00 70 1012.4
20260904061005 75 95 0.0 0.0 0.00 0.20 0.00 71 1012.5
20260904055006 76 95 0.0 0.0 0.00 0.20 0.00 71 1012.7
20260904054007 76 95 0.0 0.0 0.00 0.20 0.00 72 1012.7
20260904053006 76 95 0.0 0.0 0.00 0.20 0.00 72 1012.8
20260904052006 76 95 0.0 0.0 0.00 0.20 0.00 73 1012.9
20260904051006 76 95 0.0 0.0 0.00 0.20 0.00 73 1012.9
20260904050005 76 95 0.0 0.0 0.00 0.20 0.00 73 1013.0
20260904045005 76 95 0.0 0.0 0.00 0.20 0.00 72 1012.9
20260904044006 76 95 0.0 0.0 0.00 0.20 0.00 73 1012.9
20260904043005 76 95 0.0 0.0 0.00 0.20 0.00 74 1013.0
20260904042005 76 95 0.0 1.0 0.00 0.20 0.00 74 1013.0
20260904041007 76 95 0.0 1.0 0.00 0.20 0.00 74 1012.9
20260904040005 76 95 0.0 1.0 0.00 0.20 0.00 75 1012.8
20260904035006 76 95 0.0 1.0 0.00 0.20 0.20 75 1012.9
20260904034005 76 95 0.0 2.0 0.00 0.20 0.20 74 1012.9
20260904033007 76 95 1.0 2.0 0.00 0.20 0.20 75 1012.9
20260904032007 76 105 1.0 2.0 0.00 0.20 0.20 75 1013.0
20260904025007 76 220 0.0 1.0 0.00 0.20 0.20 76 1013.3
20260904024007 76 220 0.0 1.0 0.00 0.20 0.20 76 1013.2
20260904023005 76 220 0.0 1.0 0.00 0.20 0.20 76 1013.1
20260904022006 76 111 0.0 2.0 0.00 0.20 0.20 77 1013.1
20260904021006 76 98 0.0 2.0 0.00 0.20 0.20 78 1013.1
20260904020006 76 161 1.0 1.0 0.00 0.20 0.20 78 1013.1
20260904015007 76 161 0.0 0.0 0.00 0.20 0.20 79 1013.1
20260904014007 77 161 0.0 0.0 0.00 0.20 0.20 80 1013.1
20260904013006 77 161 0.0 0.0 0.00 0.20 0.20 80 1013.1
20260904012005 77 161 0.0 0.0 0.00 0.20 0.20 80 1013.0
20260904011005 77 161 0.0 0.0 0.00 0.20 0.20 80 1012.9
20260904010005 77 161 0.0 0.0 0.00 0.20 0.20 82 1012.7
20260904005006 77 161 0.0 0.0 0.00 0.20 0.20 82 1012.7
20260904003005 78 161 0.0 0.0 0.00 0.20 0.20 82 1012.7
20260904002007 77 161 0.0 0.0 0.00 0.20 0.20 83 1012.9
20260904001005 78 161 0.0 1.0 0.00 0.20 0.20 83 1012.8
20260904000005 78 161 0.0 0.0 0.00 0.20 0.20 84 1012.8
20260903235005 78 161 0.0 1.0 0.00 0.20 0.20 84 1012.5
20260903234007 78 161 0.0 0.0 0.00 0.20 0.20 84 1012.4
20260903233006 78 161 0.0 0.0 0.00 0.20 0.20 84 1012.3
20260903232005 78 161 0.0 2.0 0.00 0.20 0.20 83 1012.5
20260903230006 79 239 1.0 2.0 0.00 0.20 0.20 83 1012.4
20260903225005 79 239 1.0 2.0 0.00 0.20 0.20 82 1012.3
20260903223006 81 184 1.0 6.0 0.00 0.20 0.20 79 1012.3
20260903221006 83 180 0.0 2.0 0.00 0.20 0.20 83 1012.1
20260903220006 83 103 0.0 3.0 0.00 0.20 0.20 82 1012.0
20260903215006 83 125 1.0 7.0 0.00 0.20 0.20 82 1011.9
20260903214006 83 84 3.0 12.0 0.00 0.20 0.20 81 1011.9
20260903213006 84 88 4.0 9.0 0.00 0.20 0.20 81 1011.9
20260903210006 83 92 5.0 12.0 0.00 0.20 0.20 82 1011.3
20260903205006 83 86 6.0 12.0 0.00 0.20 0.20 83 1011.0
20260903204005 83 86 6.0 12.0 0.00 0.20 0.20 83 1010.6
20260903203007 83 68 7.0 12.0 0.00 0.20 0.20 83 1011.0
20260903202006 83 85 4.0 12.0 0.00 0.20 0.20 83 1011.5
20260903201005 82 60 5.0 10.0 0.00 0.20 0.20 82 1011.7
20260903200005 82 59 4.0 12.0 0.00 0.20 0.20 80 1011.8
20260903195005 82 89 3.0 6.0 0.01 0.20 0.20 78 1011.7
20260903194005 81 84 3.0 6.0 0.01 0.20 0.20 76 1011.9
20260903193005 80 87 2.0 5.0 0.01 0.20 0.20 76 1012.1
20260903192005 80 82 3.0 7.0 0.02 0.20 0.20 77 1011.9
20260903191006 80 88 4.0 6.0 0.06 0.20 0.20 74 1012.0
20260903190005 80 97 3.0 5.0 0.13 0.20 0.20 73 1012.2
20260903184005 79 59 3.0 5.0 0.19 0.19 0.19 74 1012.2
20260903183006 80 109 1.0 5.0 0.19 0.19 0.19 73 1012.6
20260903181005 79 88 1.0 3.0 0.14 0.14 0.14 81 1012.8
20260903180005 80 136 1.0 3.0 0.07 0.07 0.07 83 1013.0
20260903174005 83 106 3.0 6.0 0.00 0.00 0.00 83 1013.2
20260903173006 85 68 4.0 9.0 0.00 0.00 0.00 78 1013.0